Regional Weather Roundup
Issued by NWS

Home | Current Version | Previous Version | Text Only | Print | Product List | Glossary Off
Versions: 1 2 3 4 5 6 7 8 9 10 11 12 13 14 15 16 17 18 19 20 21 22 23 24 25 26 27 28 29 30 31 32 33 34 35 36 37 38 39 40 41 42 43 44 45 46 47 48 49 50

000
ASUS43 KDMX 272307
RWRIA

WEATHER ROUNDUP FOR IOWA
NATIONAL WEATHER SERVICE DES MOINES IA
600 PM CDT FRI MAR 27 2015

NOTE: "FAIR" INDICATES FEW OR NO CLOUDS BELOW 12,000 FEET WITH NO
SIGNIFICANT WEATHER AND/OR OBSTRUCTIONS TO VISIBILITY.

* - THESE STATIONS ARE NOT NWS STATIONS...THUS NOT UNDER NWS
QUALITY CONTROL.  THEY ALSO DO NOT REPORT WEATHER SUCH
AS PRECIPITATION OR FOG.

IAZ001>003-012>014-020>022-031>034-043>046-280000-
   NORTHWEST IOWA

CITY           SKY/WX    TMP DP  RH WIND       PRES   REMARKS
CARROLL *      SUNNY     37   7  28 CALM      30.12F
CHEROKEE *     CLOUDY    36  12  38 SW8       30.12S WCI  29
DENISON *      SUNNY     37  10  32 VRB7      30.11S WCI  32
LE MARS *      CLOUDY    37  16  41 SW7       30.12S WCI  32
ORANGE CITY *  SUNNY     37  10  32 S7        30.11S WCI  32
SHELDON *      SUNNY     34  12  40 SW8       30.10S WCI  27
SIOUX CITY     CLOUDY    36  20  52 SW7       30.13F WCI  30
SPENCER        CLOUDY    37  11  34 S7        30.12R WCI  32
STORM LAKE *   SUNNY     36  10  35 SW8       30.12S WCI  29
$$

IAZ055>058-069>071-079>083-090>094-280000-
   SOUTHWEST IOWA

CITY           SKY/WX    TMP DP  RH WIND       PRES   REMARKS
ATLANTIC *     SUNNY     39  12  33 SW6       30.14S WCI  35
AUDUBON *      SUNNY     39   7  26 SW7       30.14R WCI  34
CLARINDA *     PTSUNNY   39  16  38 W7        30.17S WCI  34
COUNCIL BLFS * SUNNY     37  16  41 W8G17     30.14F WCI  31
CRESTON *      MOSUNNY   37  12  35 NW5       30.14R WCI  34
HARLAN  *      SUNNY     37  18  44 SW8       30.17S WCI  31
LAMONI         CLOUDY    40  12  32 VRB3      30.12F
RED OAK *      MOSUNNY   39  16  38 SW6       30.15F WCI  35
SHENANDOAH *   MOSUNNY   39  18  41 W7        30.16F WCI  34
$$

IAZ047>049-059>061-072>074-084-280000-
   CENTRAL IOWA

CITY           SKY/WX    TMP DP  RH WIND       PRES   REMARKS
AMES           CLOUDY    37  10  32 S3        30.14F
ANKENY *       SUNNY     37   9  30 CALM      30.15S
CHARITON *     SUNNY     39   9  28 N7        30.14S WCI  34
DES MOINES     CLOUDY    40   7  25 CALM      30.15S
GRINNELL*      MOSUNNY   36  10  35 N5        30.15S WCI  32
KNOXVILLE *    SUNNY     37   9  30 NW5       30.13S WCI  34
MARSHALLTOWN   MOSUNNY   37  13  37 NE5       30.14S WCI  33
PELLA *        PTSUNNY   39  14  35 CALM      30.16S
PERRY *          N/A     39   9  28 CALM      30.13S
$$

IAZ004>006-015-016-023>025-035-036-280000-
   NORTH CENTRAL IOWA

CITY           SKY/WX    TMP DP  RH WIND       PRES   REMARKS
ALGONA *       SUNNY     36  12  38 S5        30.13F WCI  32
CLARION *      SUNNY     34  14  44 CALM      30.14S
ESTHERVILLE    CLOUDY    36  11  35 S7        30.11S WCI  30
FORT DODGE *   CLOUDY    37  10  32 SW3       30.13F
MASON CITY     MOSUNNY   36  11  35 NE3       30.14S
FOREST CITY *  SUNNY     34  12  40 CALM      30.13S
IOWA FALLS *     N/A     37  14  38 NW5       30.15S WCI  34
$$

IAZ007>011-017>019-026>030-037>042-050>054-066-280000-
   NORTHEAST IOWA

CITY           SKY/WX    TMP DP  RH WIND       PRES   REMARKS
CEDAR RAPIDS   SUNNY     37   7  28 NW6       30.14F WCI  32
CHARLES CITY * SUNNY     32  14  47 NE9       30.16S WCI  24
CLINTON *      SUNNY     36   9  32 N9        30.19S WCI  29
DECORAH *      SUNNY     28   9  43 NW5       30.15S WCI  23
DUBUQUE        SUNNY     33   8  35 N8        30.15S WCI  26
MONTICELLO *   SUNNY     36   9  32 N5        30.16S WCI  32
OELWEIN *      SUNNY     32  10  40 N6        30.16S WCI  26
WATERLOO       SUNNY     36   9  32 VRB3      30.15S
$$

IAZ064-065-067-068-078-280000-
   EAST CENTRAL IOWA

CITY           SKY/WX    TMP DP  RH WIND       PRES   REMARKS
DAVENPORT      SUNNY     36   8  31 N9        30.16S WCI  29
IOWA CITY      SUNNY     38   8  29 N10       30.17F WCI  31
MT. PLEASANT * SUNNY     37   7  28 N6        30.16S WCI  33
MUSCATINE *    SUNNY     39   7  26 N7        30.17S WCI  34
QUAD CITIES    SUNNY     38   6  26 N7        30.15F WCI  33
$$

IAZ062-063-075>077-085>089-095>099-280000-
   SOUTHEAST IOWA

CITY           SKY/WX    TMP DP  RH WIND       PRES   REMARKS
BURLINGTON     SUNNY     39   8  27 NW7       30.16S WCI  34
FAIRFIELD *    SUNNY     37   5  25 N7        30.15F WCI  32
FORT MADISON * SUNNY     37  10  32 NE8       30.16S WCI  31
KEOKUK *       SUNNY     39   7  26 N8        30.15S WCI  34
OSKALOOSA *      N/A     37   7  28 CALM      30.15S
CENTERVILLE *  SUNNY     39   9  28 NW5       30.14F
OTTUMWA        MOSUNNY   39   8  27 NE5       30.14F
WASHINGTON *   SUNNY     37   7  28 NE6G12    30.15F WCI  33
$$

ABBREVIATIONS USED IN REMARKS
   TC - TEMPERATURES IN CELSIUS
  WCI - WIND CHILL INDEX
   HX - HEAT INDEX
  VSB - VISIBILITY
$$




USA.gov is the U.S. government's official web portal to all federal, state and local government web resources and services.